[[{"header":{"parameterUnit":"m.s-1","parameterCategory":2,"la1":30.2991,"la2":30.254,"lo1":-89.0895,"lo2":-89.0444,"dy":0.0017,"dx":0.0017,"nx":28,"ny":28,"refTime":"2023-08-11T09:00:00:Z","depth":"0","parameterNumber":2,"parameterNumberName":"U-component_of_CURRENTS"},"data":[0,0,0,0,0,0,0,0,0,0,0,0,0,0,0,0,0,0,0,0,0,0,0,0,0,0,0,0,0,0,0,0,0,0,0,0,0,0,0,0,0,0,0,0,0,0,0,0,0,0,0,0,0,0,0,0,0,0,-0.0989,-0.0989,0,-0.101,-0.101,-0.1011,-0.1011,-0.1011,-0.101,-0.101,-0.0948,-0.0947,-0.0946,0,0,0,0,0,0,0,0,0,0,0,0,0,-0.0942,-0.0943,-0.0989,-0.0989,-0.0989,-0.101,-0.101,-0.1011,-0.1011,-0.1011,-0.101,-0.1009,-0.0948,-0.0947,-0.0945,0,0,0,0,0,0,0,0,0,0,0,0,0,-0.0966,-0.0944,-0.0989,-0.0989,-0.0989,-0.1009,-0.101,-0.1011,-0.1011,-0.1011,-0.101,-0.1009,-0.0949,-0.0947,-0.0945,-0.0951,0,0,-0.094,-0.0939,0,0,0,0,0,0,0,0,-0.0965,-0.0968,-0.0989,-0.0989,-0.0989,-0.1004,-0.0971,-0.0986,-0.1012,-0.1006,-0.101,-0.1009,-0.0957,-0.0955,-0.0967,-0.0949,-0.0946,-0.094,-0.0939,-0.0938,-0.0938,0,0,0,0,0,0,0,-0.0963,-0.0967,-0.1,-0.0989,-0.0989,-0.0985,-0.0988,-0.0974,-0.0987,-0.1007,-0.1006,-0.1004,-0.0957,-0.0968,-0.0965,-0.0945,-0.094,-0.0938,-0.0937,-0.0937,-0.0917,-0.0917,0,0,0,0,0,0,-0.0955,-0.0966,-0.1,-0.1001,-0.0971,-0.0987,-0.099,-0.1003,-0.0989,-0.0986,-0.1004,-0.1003,-0.0972,-0.0967,-0.0962,-0.092,-0.0938,-0.0937,-0.0936,-0.0917,-0.0917,-0.0918,0,0,0,0,0,0,-0.0955,-0.0959,-0.0999,-0.098,-0.0984,-0.0988,-0.1003,-0.1004,-0.102,-0.0988,-0.0983,-0.1019,-0.0971,-0.0965,-0.0966,-0.0919,-0.0936,-0.0934,-0.0916,-0.0917,-0.0917,-0.0866,0,0,0,0,0,0,-0.0954,-0.0959,-0.0977,-0.098,-0.0985,-0.1012,-0.1003,-0.1004,-0.1018,-0.1017,-0.0999,-0.0992,-0.097,-0.0969,-0.0964,-0.0917,-0.0933,-0.0915,-0.0916,-0.0917,-0.0867,-0.0865,-0.0863,0,0,0,0,0,-0.0952,-0.0986,-0.0978,-0.0982,-0.1006,-0.1012,-0.1015,-0.1016,-0.1019,-0.1029,-0.1026,-0.0993,-0.097,-0.0969,-0.0963,-0.0914,-0.0915,-0.0916,-0.0917,-0.0868,-0.0865,-0.0863,0,0,0,0,0,0,-0.0963,-0.0988,-0.098,-0.1016,-0.1009,-0.1011,-0.1034,-0.1026,-0.1035,-0.1021,-0.1011,-0.1004,-0.0987,-0.0977,-0.0976,-0.0918,-0.0932,-0.0932,-0.0897,-0.0894,-0.0892,-0.0929,-0.0932,0,0,0,0,0,-0.0975,-0.1007,-0.1009,-0.1027,-0.1042,-0.1039,-0.1047,-0.102,-0.1022,-0.1026,-0.1024,-0.1009,-0.0989,-0.0965,-0.096,-0.0929,-0.0914,-0.0895,-0.0893,-0.0891,-0.0922,-0.0868,-0.0862,-0.0921,-0.0921,-0.0921,0,0,-0.0978,-0.0994,-0.101,-0.1031,-0.1041,-0.1057,-0.1044,-0.1035,-0.1014,-0.1014,-0.1021,-0.1013,-0.099,-0.0957,-0.0944,-0.0935,-0.086,-0.0892,-0.089,-0.0923,-0.0868,-0.0862,-0.0856,-0.0922,-0.0922,-0.0922,0,0,-0.0973,-0.1025,-0.1037,-0.106,-0.1053,-0.1059,-0.106,-0.1059,-0.1034,-0.1035,-0.1015,-0.1003,-0.0995,-0.0952,-0.0932,-0.0925,-0.0868,-0.0899,-0.0889,-0.0833,-0.0828,-0.0822,-0.076,-0.075,-0.0874,-0.0874,-0.0874,0,-0.0979,-0.0994,-0.1035,-0.1057,-0.1077,-0.1071,-0.1072,-0.1057,-0.104,-0.1029,-0.1035,-0.1026,-0.0998,-0.0936,-0.0926,-0.0915,-0.0874,-0.0886,-0.0827,-0.0822,-0.0817,-0.0755,-0.0744,-0.0872,-0.0872,-0.0873,-0.0873,0,-0.0985,-0.1001,-0.1025,-0.1061,-0.1083,-0.1089,-0.1077,-0.1076,-0.107,-0.1056,-0.1024,-0.0995,-0.0995,-0.0952,-0.0937,-0.0867,-0.0844,-0.0841,-0.0824,-0.0808,-0.0743,-0.0733,-0.0869,-0.0869,-0.087,-0.0871,0,0,-0.099,-0.1021,-0.1028,-0.1026,-0.1085,-0.1086,-0.1089,-0.1081,-0.1073,-0.1056,-0.1037,-0.1,-0.0996,-0.0976,-0.0916,-0.0853,-0.0764,-0.0826,-0.0824,-0.0749,-0.0622,-0.0545,-0.0526,-0.0728,-0.0727,-0.0726,-0.0575,0,-0.0978,-0.0993,-0.1018,-0.103,-0.1049,-0.108,-0.1085,-0.107,-0.1075,-0.1065,-0.1006,-0.0986,-0.0988,-0.0953,-0.0901,-0.0805,-0.0741,-0.0805,-0.0666,-0.0663,-0.0582,-0.0514,-0.037,-0.022,-0.0565,-0.0563,-0.0562,0,-0.0983,-0.0985,-0.0991,-0.0995,-0.101,-0.1018,-0.105,-0.1042,-0.1041,-0.1032,-0.103,-0.1011,-0.0931,-0.0927,-0.0787,-0.0819,-0.074,-0.0666,-0.0657,-0.061,-0.0568,-0.0302,-0.0188,-0.0311,-0.0546,-0.0548,-0.0549,0,-0.0964,-0.0969,-0.0963,-0.0988,-0.1006,-0.0994,-0.1009,-0.1037,-0.101,-0.1012,-0.1,-0.0959,-0.0872,-0.0817,-0.075,-0.0735,-0.0599,-0.0551,-0.041,-0.0403,-0.0273,-0.0257,-0.0255,-0.0464,-0.0464,-0.0465,-0.0465,0,-0.0972,-0.0962,-0.0942,-0.0955,-0.0931,-0.0959,-0.0936,-0.0968,-0.0956,-0.0924,-0.0968,-0.0896,-0.0836,-0.0778,-0.0735,-0.0563,-0.0598,-0.0404,-0.0356,-0.0249,-0.0233,-0.0332,-0.0438,-0.0459,-0.046,-0.0461,-0.0462,0,-0.0958,-0.0959,-0.095,-0.0939,-0.0924,-0.092,-0.0886,-0.0863,-0.0882,-0.0836,-0.0826,-0.0788,-0.0689,-0.0688,-0.0552,-0.0479,-0.0381,-0.0326,-0.0214,-0.0154,-0.0054,-0.0162,-0.0149,-0.0128,-0.0052,-0.0049,-0.0046,0,-0.0949,-0.0939,-0.0935,-0.0919,-0.0906,-0.0872,-0.0835,-0.0831,-0.0803,-0.0756,-0.0711,-0.0622,-0.0523,-0.0354,-0.0235,-0.0133,-0.0283,0.0049,0.0108,-0.003,-0.0114,-0.0235,-0.0228,0.032,0.0326,0.033,0.0333,0,-0.0915,-0.0925,-0.092,-0.0892,-0.0848,-0.0801,-0.0747,-0.0699,-0.0678,-0.0623,-0.052,-0.0434,-0.0221,0.0005,0.01,0.0165,0.001,0.0149,-0.001,0.0157,0.0042,0.0081,0.0175,0.0371,0.0367,0.0365,0.0363,0.0361,-0.0884,-0.088,-0.0869,-0.0836,-0.0799,-0.0732,-0.0668,-0.0592,-0.0507,-0.0393,-0.033,-0.0127,0.0148,0.039,0.0348,0.0421,0.0355,0.0489,0.0372,0.026,0.0262,0.0427,0.0673,0.0671,0.067,0.0668,0.0667,0,-0.0829,-0.0818,-0.0792,-0.0749,-0.0692,-0.0695,-0.0599,-0.0509,-0.0376,-0.0215,-0.0077,0.0301,0.0511,0.0588,0.0727,0.0642,0.058,0.0528,0.0373,0.038,0.0554,0.0548,0.0797,0.0797,0.0797,0.0797,0.0797,0.0798,-0.0798,-0.076,-0.0741,-0.0633,-0.0604,-0.0505,-0.0449,-0.0333,-0.0195,0.0107,0.0359,0.0535,0.068,0.0613,0.0505,0.0486,0.0297,0.0319,0.0159,0.0227,0.0212,0.0198,0.0166,0.0331,0.033,0.0087,0.0085,0.0082]},{"header":{"parameterUnit":"m.s-1","parameterCategory":2,"la1":30.2991,"la2":30.254,"lo1":-89.0895,"lo2":-89.0444,"dy":0.0017,"dx":0.0017,"nx":28,"ny":28,"refTime":"2023-08-11T09:00:00:Z","depth":"0","parameterNumber":3,"parameterNumberName":"V-component_of_CURRENTS"},"data":[0,0,0,0,0,0,0,0,0,0,0,0,0,0,0,0,0,0,0,0,0,0,0,0,0,0,0,0,0,0,0,0,0,0,0,0,0,0,0,0,0,0,0,0,0,0,0,0,0,0,0,0,0,0,0,0,0,0,0.0031,0.0031,0,0.0112,0.0113,0.0115,0.0215,0.0216,0.0217,0.0217,0.0317,0.0319,0.0321,0,0,0,0,0,0,0,0,0,0,0,0,0,0.0064,0.0063,0.0031,0.0031,0.0031,0.0111,0.0113,0.0115,0.0215,0.0216,0.0217,0.0218,0.0316,0.0319,0.0321,0,0,0,0,0,0,0,0,0,0,0,0,0,0.0096,0.0063,0.0031,0.0084,0.0089,0.0111,0.0113,0.0116,0.0215,0.0216,0.0217,0.0218,0.0315,0.0318,0.0321,0.0318,0,0,0.033,0.0332,0,0,0,0,0,0,0,0,0.0094,0.0096,0.0076,0.008,0.0085,0.0146,0.0161,0.0181,0.0215,0.0177,0.0217,0.0219,0.0254,0.0263,0.0289,0.0322,0.0327,0.0331,0.0332,0.0334,0.0334,0,0,0,0,0,0,0,0.0092,0.0093,0.0072,0.0076,0.0081,0.0137,0.0143,0.0166,0.0216,0.018,0.0185,0.0179,0.0259,0.0285,0.0291,0.0328,0.033,0.0333,0.0335,0.0336,0.0345,0.0344,0,0,0,0,0,0,0.0056,0.009,0.007,0.0074,0.0082,0.0134,0.0142,0.0133,0.0216,0.0226,0.0178,0.0183,0.028,0.0288,0.0295,0.0283,0.0334,0.0336,0.0338,0.0347,0.0345,0.0343,0,0,0,0,0,0,0.0056,0.0053,0.0066,0.0077,0.0082,0.0131,0.0122,0.0134,0.0154,0.0212,0.0226,0.0183,0.0281,0.0291,0.0315,0.0288,0.0338,0.034,0.0348,0.0346,0.0344,0.0265,0,0,0,0,0,0,0.0057,0.0053,0.0046,0.0074,0.0079,0.008,0.012,0.0134,0.0144,0.0152,0.022,0.0232,0.0283,0.031,0.0318,0.0293,0.0343,0.035,0.0347,0.0345,0.027,0.0261,0.0253,0,0,0,0,0,0.0058,0.0026,0.0045,0.0043,0.0064,0.0078,0.0088,0.0134,0.0142,0.0155,0.0195,0.0229,0.0297,0.0312,0.0321,0.0296,0.0352,0.0348,0.0345,0.0274,0.0262,0.0253,0,0,0,0,0,0,0.0022,0.0034,0.0055,0.0026,0.0053,0.0092,0.0092,0.0117,0.0159,0.0167,0.022,0.0234,0.024,0.0274,0.0288,0.0287,0.0325,0.0323,0.0267,0.0257,0.0249,0.0236,0.0345,0,0,0,0,0,0.001,0.0007,0.0024,0.0008,0.0007,0.0047,0.0058,0.0093,0.0124,0.0145,0.0175,0.0208,0.0232,0.025,0.0279,0.0282,0.0325,0.0267,0.0259,0.0251,0.0245,0.0315,0.0313,0.0332,0.0332,0.0332,0,0,-0.0014,-0.0003,-0.0009,0.0003,0.0022,0.0019,0.0059,0.007,0.0083,0.0145,0.0154,0.0178,0.0224,0.0234,0.0238,0.0262,0.0259,0.0247,0.024,0.0238,0.0311,0.031,0.0309,0.0329,0.033,0.033,0,0,-0.0048,-0.0054,-0.0058,-0.005,-0.0025,-0.0004,-0.0012,0.0016,0.0048,0.0059,0.01,0.0112,0.0138,0.0177,0.0198,0.0155,0.0208,0.0144,0.0099,0.0167,0.0167,0.0167,0.0186,0.0189,0.0145,0.0145,0.0145,0,-0.0061,-0.0077,-0.0057,-0.0064,-0.0072,-0.0029,-0.0042,-0.0009,0.0028,0.0038,0.0051,0.0074,0.0116,0.0133,0.0117,0.0137,0.0166,0.0138,0.0158,0.016,0.0162,0.0181,0.0186,0.0141,0.0141,0.0142,0.0142,0,-0.0112,-0.011,-0.0126,-0.0116,-0.0119,-0.0126,-0.0099,-0.0084,-0.0068,-0.0045,-0.0037,0.0015,0.0031,0.0033,0.0065,0.0079,0.0089,0.0138,0.0189,0.0156,0.0177,0.0183,0.0135,0.0136,0.0138,0.0139,0,0,-0.0153,-0.0152,-0.0152,-0.0149,-0.0148,-0.0153,-0.0149,-0.0131,-0.0127,-0.0107,-0.01,-0.0082,-0.007,-0.0047,-0.0011,0.0038,0.0067,0.008,0.0085,0.0104,0.0177,0.017,0.0176,0.0125,0.0126,0.0128,0.0175,0,-0.0179,-0.0201,-0.0196,-0.0216,-0.0234,-0.021,-0.0215,-0.0195,-0.0169,-0.0151,-0.0107,-0.0094,-0.0092,-0.0081,-0.004,0.005,0.0083,0.0047,0.0201,0.0204,0.021,0.0184,0.0316,0.037,0.0182,0.0183,0.0184,0,-0.0226,-0.0227,-0.0262,-0.0255,-0.0265,-0.0274,-0.0277,-0.0268,-0.0231,-0.021,-0.02,-0.0163,-0.0124,-0.0087,0.0012,-0.0015,0.0061,0.0129,0.0134,0.0162,0.021,0.0379,0.0388,0.0526,0.0193,0.0193,0.0192,0,-0.0271,-0.0269,-0.0297,-0.0308,-0.031,-0.0309,-0.0306,-0.0295,-0.0285,-0.0241,-0.0235,-0.019,-0.0136,-0.006,0.0024,0.0036,0.015,0.0205,0.0258,0.0257,0.0418,0.0428,0.0591,0.0292,0.0291,0.0291,0.0291,0,-0.0306,-0.0318,-0.0314,-0.0334,-0.0356,-0.0351,-0.0359,-0.0346,-0.032,-0.031,-0.0275,-0.0239,-0.0117,-0.005,0.002,0.0125,0.0144,0.0237,0.0276,0.0386,0.0393,0.0559,0.0597,0.0293,0.0293,0.0292,0.0292,0,-0.0336,-0.0342,-0.0369,-0.0376,-0.0378,-0.0398,-0.0386,-0.0377,-0.0371,-0.0343,-0.0332,-0.025,-0.017,-0.0098,0.0064,0.0139,0.0339,0.0271,0.0351,0.0398,0.0581,0.0609,0.0763,0.0885,0.0357,0.0357,0.0358,0,-0.0348,-0.0375,-0.0407,-0.0421,-0.0415,-0.0425,-0.042,-0.0404,-0.0391,-0.035,-0.0331,-0.0251,-0.0182,-0.002,0.0138,0.0244,0.0355,0.0442,0.05,0.0595,0.0657,0.0671,0.0765,0.0675,0.0677,0.068,0.0681,0,-0.0367,-0.0394,-0.0408,-0.0448,-0.0448,-0.0446,-0.0434,-0.0432,-0.04,-0.0367,-0.0298,-0.0239,-0.0081,0.0129,0.0254,0.035,0.059,0.049,0.062,0.0926,0.093,0.1065,0.0589,0.0701,0.0699,0.0698,0.0697,0.0696,-0.0378,-0.0398,-0.0431,-0.0461,-0.0455,-0.0445,-0.0432,-0.0391,-0.0353,-0.0253,-0.0234,-0.0074,0.018,0.039,0.0471,0.0791,0.0725,0.0938,0.0961,0.0963,0.1095,0.0604,0.0736,0.0734,0.0733,0.0732,0.073,0,-0.038,-0.0406,-0.0437,-0.0453,-0.0428,-0.0439,-0.0419,-0.0361,-0.0274,-0.0128,-0.0032,0.0315,0.0552,0.0774,0.1137,0.1288,0.1374,0.1359,0.1476,0.1552,0.1179,0.121,0.1414,0.1414,0.1414,0.1414,0.1414,0.1414,-0.0384,-0.042,-0.0441,-0.0417,-0.0411,-0.0374,-0.0356,-0.0241,-0.0121,0.0217,0.0481,0.0648,0.1015,0.13,0.1648,0.1718,0.1897,0.1851,0.1888,0.1688,0.1652,0.1619,0.1661,0.1957,0.1957,0.2351,0.2354,0.2357]}],[{"header":{"parameterUnit":"m.s-1","parameterCategory":2,"la1":30.2991,"la2":30.254,"lo1":-89.0895,"lo2":-89.0444,"dy":0.0017,"dx":0.0017,"nx":28,"ny":28,"refTime":"2023-08-11T09:00:00:Z","depth":"2","parameterNumber":2,"parameterNumberName":"U-component_of_CURRENTS"},"data":[0,0,0,0,0,0,0,0,0,0,0,0,0,0,0,0,0,0,0,0,0,0,0,0,0,0,0,0,0,0,0,0,0,0,0,0,0,0,0,0,0,0,0,0,0,0,0,0,0,0,0,0,0,0,0,0,0,0,-0.2531,-0.2533,0,-0.2633,-0.2633,-0.2633,-0.2571,-0.2569,-0.2567,-0.2566,-0.2767,-0.2774,-0.2781,0,0,0,0,0,0,0,0,0,0,0,0,0,-0.2206,-0.2212,-0.2531,-0.2533,-0.2536,-0.2633,-0.2633,-0.2633,-0.2571,-0.2569,-0.2567,-0.2565,-0.2765,-0.2773,-0.2781,0,0,0,0,0,0,0,0,0,0,0,0,0,-0.2319,-0.2214,-0.253,-0.2527,-0.2528,-0.2633,-0.2633,-0.2633,-0.2571,-0.2569,-0.2566,-0.2564,-0.2762,-0.2772,-0.2783,-0.2898,0,0,-0.2814,-0.2819,0,0,0,0,0,0,0,0,-0.2313,-0.2329,-0.2525,-0.2527,-0.2529,-0.2598,-0.2593,-0.2731,-0.2572,-0.254,-0.2566,-0.2563,-0.2731,-0.2744,-0.2747,-0.2907,-0.2916,-0.2815,-0.2822,-0.2826,-0.2829,0,0,0,0,0,0,0,-0.2305,-0.2324,-0.2557,-0.2528,-0.2531,-0.2495,-0.2507,-0.2617,-0.264,-0.2543,-0.2542,-0.2576,-0.273,-0.2737,-0.2752,-0.2919,-0.2815,-0.2824,-0.2831,-0.2835,-0.3122,-0.3124,0,0,0,0,0,0,-0.2328,-0.2318,-0.2554,-0.2562,-0.2428,-0.2504,-0.2517,-0.2568,-0.2637,-0.2648,-0.2578,-0.2573,-0.2721,-0.274,-0.276,-0.2811,-0.2826,-0.2836,-0.2842,-0.3121,-0.3123,-0.3124,0,0,0,0,0,0,-0.2321,-0.2349,-0.255,-0.2451,-0.2476,-0.2515,-0.257,-0.2571,-0.249,-0.2665,-0.2674,-0.2487,-0.272,-0.2745,-0.2865,-0.2822,-0.2841,-0.285,-0.3119,-0.3121,-0.3123,-0.2974,0,0,0,0,0,0,-0.2312,-0.2346,-0.2333,-0.2454,-0.2483,-0.2594,-0.2574,-0.2576,-0.2528,-0.2518,-0.2594,-0.2614,-0.2719,-0.2849,-0.2875,-0.2837,-0.2858,-0.3118,-0.312,-0.3123,-0.2977,-0.2971,-0.2965,0,0,0,0,0,-0.23,-0.2319,-0.2332,-0.2358,-0.2484,-0.2596,-0.2604,-0.2613,-0.2524,-0.2515,-0.2592,-0.2606,-0.2882,-0.2861,-0.2891,-0.2854,-0.3116,-0.3119,-0.3122,-0.298,-0.2972,-0.2965,0,0,0,0,0,0,-0.2172,-0.2321,-0.2336,-0.2396,-0.2479,-0.2589,-0.256,-0.2553,-0.2588,-0.2569,-0.2657,-0.269,-0.2772,-0.2852,-0.2824,-0.2949,-0.2988,-0.2997,-0.2869,-0.2863,-0.2857,-0.2848,-0.2867,0,0,0,0,0,-0.2146,-0.2209,-0.2334,-0.2389,-0.2392,-0.2441,-0.2454,-0.2498,-0.2577,-0.2575,-0.2611,-0.2696,-0.2823,-0.2868,-0.299,-0.3068,-0.3055,-0.3058,-0.3052,-0.3046,-0.3064,-0.304,-0.303,-0.3134,-0.3134,-0.3134,0,0,-0.2122,-0.2213,-0.2245,-0.2365,-0.239,-0.243,-0.2434,-0.248,-0.2521,-0.2609,-0.2595,-0.2679,-0.2845,-0.2948,-0.2985,-0.2995,-0.2991,-0.305,-0.3043,-0.3066,-0.3041,-0.303,-0.3021,-0.3136,-0.3136,-0.3136,0,0,-0.2156,-0.2156,-0.2217,-0.226,-0.2349,-0.2387,-0.237,-0.243,-0.2434,-0.2513,-0.2579,-0.264,-0.2772,-0.289,-0.2976,-0.301,-0.2966,-0.301,-0.2964,-0.2937,-0.2927,-0.2918,-0.2782,-0.2763,-0.2997,-0.2997,-0.2997,0,-0.2103,-0.2198,-0.2248,-0.23,-0.2304,-0.2336,-0.2362,-0.241,-0.2509,-0.2545,-0.2498,-0.267,-0.2757,-0.293,-0.2934,-0.2988,-0.2929,-0.2965,-0.292,-0.2913,-0.2906,-0.2771,-0.2751,-0.299,-0.2991,-0.2991,-0.2992,0,-0.2166,-0.2218,-0.2228,-0.2296,-0.2316,-0.2343,-0.2421,-0.2427,-0.2387,-0.2459,-0.2549,-0.2664,-0.2758,-0.2779,-0.2871,-0.2891,-0.2841,-0.2908,-0.2915,-0.2884,-0.2745,-0.2726,-0.298,-0.2983,-0.2985,-0.2986,0,0,-0.2072,-0.2245,-0.2225,-0.2274,-0.2293,-0.2348,-0.2379,-0.246,-0.2482,-0.2527,-0.2552,-0.2707,-0.2694,-0.2792,-0.2864,-0.2847,-0.2689,-0.2832,-0.2833,-0.2652,-0.2521,-0.2308,-0.2267,-0.2723,-0.2722,-0.2721,-0.2401,0,-0.2063,-0.2216,-0.2248,-0.23,-0.235,-0.2352,-0.2363,-0.2461,-0.2506,-0.2542,-0.2653,-0.2716,-0.2728,-0.2738,-0.272,-0.2752,-0.2652,-0.2764,-0.2621,-0.2616,-0.2395,-0.2246,-0.2272,-0.1976,-0.2383,-0.238,-0.2378,0,-0.2039,-0.2169,-0.2228,-0.2354,-0.2338,-0.2333,-0.2341,-0.2379,-0.2491,-0.2501,-0.2573,-0.2678,-0.271,-0.269,-0.2615,-0.2672,-0.2557,-0.2536,-0.2524,-0.2382,-0.2372,-0.2102,-0.1929,-0.2348,-0.235,-0.2352,-0.2354,0,-0.1963,-0.2121,-0.2165,-0.218,-0.2292,-0.2276,-0.2282,-0.2359,-0.2391,-0.2466,-0.2493,-0.2572,-0.2561,-0.2506,-0.2415,-0.2507,-0.226,-0.2393,-0.2079,-0.2059,-0.2089,-0.2073,-0.2264,-0.2265,-0.2265,-0.2266,-0.2267,0,-0.1904,-0.1955,-0.2137,-0.2146,-0.2145,-0.2222,-0.2205,-0.2213,-0.2274,-0.231,-0.2428,-0.2472,-0.2509,-0.2437,-0.2351,-0.2076,-0.2163,-0.2013,-0.1962,-0.2025,-0.2009,-0.2394,-0.2414,-0.2254,-0.2257,-0.2259,-0.2261,0,-0.1794,-0.1904,-0.1969,-0.2084,-0.2103,-0.2065,-0.2121,-0.2183,-0.2171,-0.2219,-0.2235,-0.234,-0.2203,-0.2161,-0.2022,-0.1935,-0.1756,-0.1617,-0.161,-0.1564,-0.1595,-0.1612,-0.1303,-0.1293,-0.1284,-0.1277,-0.1271,0,-0.1757,-0.1797,-0.1871,-0.1868,-0.1884,-0.1916,-0.1961,-0.2041,-0.2127,-0.2149,-0.2187,-0.2117,-0.2072,-0.1719,-0.1536,-0.1241,-0.1388,-0.1097,-0.1319,-0.1514,-0.1497,-0.1528,-0.1555,-0.1264,-0.1258,-0.1254,-0.125,0,-0.1694,-0.1666,-0.1709,-0.171,-0.1736,-0.1779,-0.1879,-0.197,-0.2056,-0.2098,-0.2076,-0.2037,-0.1731,-0.1514,-0.1096,-0.0946,-0.1173,-0.0989,-0.1192,-0.1494,-0.1449,-0.1442,-0.1476,-0.1209,-0.1213,-0.1216,-0.1218,-0.122,-0.1583,-0.1544,-0.1569,-0.153,-0.1592,-0.162,-0.1625,-0.1805,-0.185,-0.1872,-0.1918,-0.1748,-0.1668,-0.1058,-0.0815,-0.0585,-0.0724,-0.0798,-0.0826,-0.0856,-0.0899,-0.0841,-0.0488,-0.0488,-0.0488,-0.0488,-0.0488,0,-0.1457,-0.1431,-0.1436,-0.1412,-0.1474,-0.1441,-0.156,-0.1604,-0.1661,-0.1639,-0.1557,-0.1308,-0.1115,-0.0927,-0.0582,-0.0432,-0.0506,-0.0367,-0.0648,-0.0689,-0.0725,-0.0776,-0.0324,-0.0322,-0.0321,-0.0319,0,0,-0.1412,-0.1379,-0.1377,-0.1341,-0.1284,-0.1206,-0.1197,-0.1279,-0.1275,-0.1196,-0.107,-0.1068,-0.1022,-0.0758,-0.0632,-0.0475,-0.0542,-0.0354,-0.0514,-0.0898,-0.0932,-0.1016,-0.1141,0,0,0,0,0]},{"header":{"parameterUnit":"m.s-1","parameterCategory":2,"la1":30.2991,"la2":30.254,"lo1":-89.0895,"lo2":-89.0444,"dy":0.0017,"dx":0.0017,"nx":28,"ny":28,"refTime":"2023-08-11T09:00:00:Z","depth":"2","parameterNumber":3,"parameterNumberName":"V-component_of_CURRENTS"},"data":[0,0,0,0,0,0,0,0,0,0,0,0,0,0,0,0,0,0,0,0,0,0,0,0,0,0,0,0,0,0,0,0,0,0,0,0,0,0,0,0,0,0,0,0,0,0,0,0,0,0,0,0,0,0,0,0,0,0,-0.019,-0.0188,0,-0.0062,-0.006,-0.0059,-0.0032,-0.0033,-0.0034,-0.0035,0.0313,0.0323,0.0333,0,0,0,0,0,0,0,0,0,0,0,0,0,-0.0241,-0.0241,-0.019,-0.0188,-0.0187,-0.0062,-0.006,-0.0058,-0.0032,-0.0033,-0.0035,-0.0036,0.0309,0.0322,0.0334,0,0,0,0,0,0,0,0,0,0,0,0,0,-0.0175,-0.0241,-0.019,-0.016,-0.0156,-0.0063,-0.006,-0.0058,-0.0031,-0.0033,-0.0035,-0.0037,0.0305,0.032,0.0336,0.0466,0,0,0.0383,0.039,0,0,0,0,0,0,0,0,-0.0179,-0.0173,-0.0166,-0.0162,-0.0158,-0.0067,0.0049,0.0128,-0.0031,-0.0077,-0.0035,-0.0037,0.0206,0.023,0.0258,0.0483,0.0497,0.0384,0.0394,0.0401,0.0405,0,0,0,0,0,0,0,-0.0184,-0.0177,-0.0137,-0.0164,-0.0159,-0.0095,-0.0089,0.0064,0.0079,-0.0073,-0.0071,-0.006,0.021,0.0242,0.0267,0.0503,0.0384,0.0398,0.0407,0.0413,0.0802,0.0802,0,0,0,0,0,0,-0.0211,-0.0182,-0.0141,-0.0133,-0.0175,-0.0094,-0.0087,-0.0092,0.0073,0.0093,-0.0058,-0.0059,0.0217,0.0248,0.0279,0.0368,0.04,0.0415,0.0424,0.0801,0.0802,0.0803,0,0,0,0,0,0,-0.0213,-0.0209,-0.0146,-0.0155,-0.0143,-0.0093,-0.0098,-0.0089,-0.0077,0.008,0.0106,-0.006,0.0217,0.0258,0.0392,0.0385,0.0422,0.0436,0.0799,0.0801,0.0802,0.0596,0,0,0,0,0,0,-0.0215,-0.0211,-0.0208,-0.0158,-0.0144,-0.012,-0.0096,-0.0085,-0.0067,-0.0068,0.009,0.012,0.0218,0.0368,0.0408,0.0407,0.0448,0.0798,0.08,0.0802,0.0601,0.059,0.058,0,0,0,0,0,-0.0218,-0.0229,-0.0209,-0.0203,-0.0148,-0.0121,-0.0109,-0.0075,-0.0066,-0.0069,0.004,0.0114,0.0408,0.0382,0.0428,0.0431,0.0797,0.08,0.0802,0.0606,0.0592,0.0581,0,0,0,0,0,0,-0.0261,-0.0225,-0.0203,-0.0205,-0.0174,-0.0119,-0.0108,-0.0084,-0.0002,0.0006,0.0143,0.0183,0.0291,0.0407,0.0375,0.0551,0.0611,0.0622,0.0446,0.0435,0.0425,0.0354,0.0461,0,0,0,0,0,-0.0264,-0.0269,-0.0219,-0.0227,-0.0208,-0.0157,-0.0135,-0.0118,-0.0046,-0.0016,0.0078,0.0211,0.0344,0.0419,0.0545,0.0664,0.0724,0.0695,0.0684,0.0674,0.0651,0.0798,0.0797,0.081,0.081,0.081,0,0,-0.0291,-0.0267,-0.0273,-0.0236,-0.0203,-0.0182,-0.015,-0.0137,-0.0128,0.0022,0.0065,0.018,0.0367,0.0469,0.053,0.0562,0.068,0.0677,0.0666,0.0648,0.08,0.0799,0.0797,0.0812,0.0811,0.0811,0,0,-0.0347,-0.0319,-0.0331,-0.0294,-0.025,-0.0216,-0.0222,-0.0177,-0.0166,-0.0093,0.0008,0.0124,0.0302,0.0426,0.0522,0.0552,0.0614,0.0573,0.0473,0.0616,0.0615,0.0615,0.057,0.0568,0.0574,0.0574,0.0574,0,-0.0369,-0.0373,-0.0333,-0.0315,-0.0288,-0.0241,-0.0237,-0.0207,-0.0138,-0.01,-0.0106,0.0164,0.0293,0.0471,0.0426,0.0528,0.0536,0.0494,0.0596,0.0599,0.0603,0.0558,0.0559,0.0564,0.0565,0.0566,0.0567,0,-0.0418,-0.0403,-0.0408,-0.037,-0.0342,-0.0334,-0.0282,-0.0266,-0.0245,-0.0195,-0.0072,0.0088,0.0248,0.0296,0.0351,0.0448,0.041,0.0552,0.0607,0.0587,0.0542,0.0546,0.055,0.0554,0.0557,0.0559,0,0,-0.0481,-0.0453,-0.044,-0.0429,-0.0363,-0.0352,-0.0328,-0.0273,-0.025,-0.0179,-0.0118,0.0051,0.0103,0.0212,0.0318,0.04,0.0369,0.042,0.0433,0.0331,0.0508,0.0544,0.0551,0.0508,0.0511,0.0513,0.042,0,-0.0517,-0.0534,-0.0486,-0.0478,-0.0478,-0.0399,-0.0382,-0.0322,-0.0276,-0.0213,-0.0043,0.0057,0.0088,0.0139,0.0224,0.0374,0.0387,0.037,0.0582,0.0584,0.0589,0.0565,0.058,0.0509,0.0425,0.0425,0.0426,0,-0.0535,-0.0555,-0.0576,-0.0539,-0.0525,-0.051,-0.0452,-0.0423,-0.0302,-0.027,-0.0144,-0.0032,0.0095,0.0133,0.0315,0.028,0.0324,0.0415,0.042,0.0537,0.0635,0.0548,0.0521,0.0434,0.0434,0.0433,0.0432,0,-0.0597,-0.0583,-0.0618,-0.0598,-0.0564,-0.0551,-0.0527,-0.044,-0.0411,-0.0303,-0.0257,-0.0084,0.0018,0.0146,0.0263,0.0279,0.0432,0.0544,0.0598,0.0594,0.0698,0.0703,0.0639,0.0639,0.0639,0.064,0.064,0,-0.0625,-0.0632,-0.0658,-0.0663,-0.0683,-0.0631,-0.0622,-0.057,-0.0491,-0.0418,-0.03,-0.0192,0.0024,0.015,0.0232,0.0393,0.0425,0.0539,0.061,0.0615,0.0613,0.0668,0.0673,0.0636,0.0637,0.0638,0.0638,0,-0.0654,-0.0672,-0.069,-0.0699,-0.0707,-0.0712,-0.0689,-0.0674,-0.0611,-0.0508,-0.0473,-0.028,-0.0117,0.0039,0.0256,0.0379,0.0532,0.0565,0.0444,0.0506,0.0567,0.0562,0.0627,0.0629,0.063,0.0631,0.0632,0,-0.0672,-0.0708,-0.0723,-0.0736,-0.0737,-0.0762,-0.0771,-0.074,-0.0698,-0.0528,-0.045,-0.0296,-0.0129,0.0133,0.0399,0.055,0.0493,0.0586,0.0698,0.0521,0.0583,0.0576,0.0571,0.0673,0.0674,0.0675,0.0676,0,-0.0721,-0.072,-0.0737,-0.0768,-0.0789,-0.0802,-0.0796,-0.0789,-0.0697,-0.0589,-0.039,-0.0251,0.0039,0.0313,0.0489,0.058,0.0582,0.0613,0.0539,0.0703,0.0569,0.0628,0.062,0.0683,0.0682,0.0682,0.0681,0.0681,-0.0738,-0.0749,-0.0771,-0.0779,-0.0804,-0.0798,-0.0783,-0.0732,-0.064,-0.0428,-0.0349,-0.0079,0.0084,0.0489,0.058,0.0705,0.075,0.0728,0.0724,0.0719,0.0771,0.0653,0.0777,0.0777,0.0776,0.0776,0.0776,0,-0.0732,-0.0753,-0.0788,-0.0799,-0.0821,-0.0798,-0.0757,-0.0698,-0.0543,-0.0347,-0.0177,0.0033,0.0312,0.0458,0.078,0.0895,0.0876,0.0769,0.0737,0.0732,0.0726,0.0777,0.0784,0.0784,0.0784,0.0784,0,0,-0.0749,-0.0783,-0.0798,-0.0824,-0.0802,-0.0749,-0.0689,-0.0573,-0.0413,-0.022,0.0003,0.0176,0.0415,0.0553,0.0634,0.076,0.0693,0.0721,0.0717,0.0664,0.0656,0.0719,0.0795,0,0,0,0,0]}],[{"header":{"parameterUnit":"m.s-1","parameterCategory":2,"la1":30.2991,"la2":30.254,"lo1":-89.0895,"lo2":-89.0444,"dy":0.0017,"dx":0.0017,"nx":28,"ny":28,"refTime":"2023-08-11T09:00:00:Z","depth":"4","parameterNumber":2,"parameterNumberName":"U-component_of_CURRENTS"},"data":[0,0,0,0,0,0,0,0,0,0,0,0,0,0,0,0,0,0,0,0,0,0,0,0,0,0,0,0,0,0,0,0,0,0,0,0,0,0,0,0,0,0,0,0,0,0,0,0,0,0,0,0,0,0,0,0,0,0,-0.1239,-0.124,0,-0.1353,-0.1354,-0.1356,-0.1392,-0.1391,-0.1391,-0.139,-0.1538,-0.1542,-0.1546,0,0,0,0,0,0,0,0,0,0,0,0,0,-0.117,-0.1171,-0.1239,-0.124,-0.1242,-0.1353,-0.1354,-0.1356,-0.1392,-0.1391,-0.139,-0.139,-0.1536,-0.1541,-0.1547,0,0,0,0,0,0,0,0,0,0,0,0,0,-0.1233,-0.1171,-0.1239,-0.1274,-0.1278,-0.1353,-0.1354,-0.1356,-0.1392,-0.1391,-0.139,-0.139,-0.1535,-0.1541,-0.1547,-0.1602,0,0,-0.1567,-0.157,0,0,0,0,0,0,0,0,-0.1229,-0.1235,-0.1267,-0.1271,-0.1276,-0.1358,-0.1385,-0.144,-0.1392,-0.1348,-0.139,-0.1389,-0.1482,-0.1493,-0.1514,-0.1609,-0.1615,-0.1568,-0.1572,-0.1575,-0.1577,0,0,0,0,0,0,0,-0.1225,-0.1231,-0.1283,-0.1269,-0.1274,-0.1324,-0.1331,-0.1396,-0.1417,-0.1352,-0.1355,-0.1369,-0.1484,-0.1508,-0.1518,-0.1617,-0.1568,-0.1574,-0.1578,-0.158,-0.1823,-0.1825,0,0,0,0,0,0,-0.1207,-0.1226,-0.128,-0.1287,-0.1251,-0.1326,-0.1334,-0.1332,-0.1416,-0.1428,-0.1369,-0.137,-0.1497,-0.151,-0.1523,-0.1637,-0.1575,-0.1581,-0.1585,-0.182,-0.1823,-0.1826,0,0,0,0,0,0,-0.1204,-0.121,-0.1275,-0.1261,-0.1273,-0.1327,-0.1325,-0.1335,-0.1378,-0.1429,-0.1442,-0.1405,-0.1497,-0.1514,-0.1612,-0.1641,-0.1584,-0.159,-0.1817,-0.1821,-0.1824,-0.1837,0,0,0,0,0,0,-0.1202,-0.1208,-0.1224,-0.1259,-0.1273,-0.1319,-0.1327,-0.1337,-0.1387,-0.139,-0.1465,-0.1476,-0.1498,-0.1602,-0.1618,-0.1649,-0.1595,-0.1814,-0.1819,-0.1823,-0.1833,-0.184,-0.1847,0,0,0,0,0,-0.1198,-0.1199,-0.1223,-0.1232,-0.1285,-0.1319,-0.1331,-0.1368,-0.139,-0.1406,-0.1477,-0.1475,-0.1643,-0.161,-0.1629,-0.1662,-0.1812,-0.1817,-0.1823,-0.183,-0.1839,-0.1846,0,0,0,0,0,0,-0.1174,-0.1205,-0.1231,-0.1242,-0.1285,-0.1325,-0.1351,-0.1385,-0.1455,-0.1479,-0.1519,-0.1536,-0.163,-0.1656,-0.1618,-0.1748,-0.1723,-0.1733,-0.1722,-0.1731,-0.1738,-0.1734,-0.16,0,0,0,0,0,-0.1179,-0.12,-0.1232,-0.1256,-0.1266,-0.1321,-0.1351,-0.1387,-0.1444,-0.1474,-0.1531,-0.1601,-0.1667,-0.1705,-0.1768,-0.1847,-0.1829,-0.1879,-0.1886,-0.1891,-0.1903,-0.1903,-0.1909,-0.1844,-0.1844,-0.1844,0,0,-0.1186,-0.1206,-0.1223,-0.1256,-0.1291,-0.1325,-0.1336,-0.1391,-0.1416,-0.1483,-0.1554,-0.1636,-0.1697,-0.1781,-0.1824,-0.1806,-0.1897,-0.1898,-0.1902,-0.1911,-0.1909,-0.1915,-0.192,-0.1848,-0.1847,-0.1847,0,0,-0.1195,-0.1214,-0.1232,-0.1271,-0.1331,-0.1355,-0.1374,-0.1437,-0.1449,-0.1551,-0.1594,-0.169,-0.1805,-0.1836,-0.1869,-0.1954,-0.1937,-0.1991,-0.2019,-0.2018,-0.2022,-0.2025,-0.1981,-0.198,-0.1988,-0.1988,-0.1988,0,-0.1206,-0.1226,-0.1247,-0.1281,-0.1317,-0.1365,-0.1401,-0.1418,-0.1516,-0.156,-0.1577,-0.178,-0.1818,-0.1905,-0.1941,-0.1963,-0.1962,-0.1975,-0.2022,-0.2025,-0.2028,-0.1982,-0.1981,-0.1989,-0.1989,-0.1989,-0.1989,0,-0.1229,-0.1263,-0.1273,-0.1327,-0.1367,-0.1409,-0.1435,-0.147,-0.1524,-0.1601,-0.1721,-0.179,-0.1916,-0.1937,-0.1974,-0.2037,-0.2026,-0.2027,-0.1987,-0.2035,-0.1984,-0.1983,-0.1991,-0.1991,-0.199,-0.199,0,0,-0.1187,-0.127,-0.1275,-0.1314,-0.1399,-0.1423,-0.1451,-0.1508,-0.1548,-0.1667,-0.1732,-0.1866,-0.1965,-0.2008,-0.2051,-0.2057,-0.2062,-0.2073,-0.2072,-0.2003,-0.2048,-0.1911,-0.1896,-0.2087,-0.2087,-0.2088,-0.199,0,-0.1195,-0.1242,-0.1295,-0.1363,-0.1385,-0.1446,-0.1462,-0.1544,-0.1615,-0.1689,-0.178,-0.1888,-0.1962,-0.2029,-0.2062,-0.2075,-0.2068,-0.2087,-0.2036,-0.2033,-0.1885,-0.1894,-0.2091,-0.1989,-0.1989,-0.1989,-0.1989,0,-0.1187,-0.1219,-0.1276,-0.1358,-0.1373,-0.1437,-0.1492,-0.1532,-0.1644,-0.1693,-0.1849,-0.1946,-0.2029,-0.2041,-0.2093,-0.2118,-0.2101,-0.2082,-0.2077,-0.1948,-0.1895,-0.1944,-0.1986,-0.1986,-0.1986,-0.1987,-0.1987,0,-0.1112,-0.1199,-0.1238,-0.1279,-0.138,-0.1418,-0.1474,-0.1583,-0.16,-0.1723,-0.1786,-0.193,-0.1968,-0.2014,-0.2052,-0.208,-0.2048,-0.2057,-0.1903,-0.1891,-0.2036,-0.2033,-0.2051,-0.2051,-0.2051,-0.2052,-0.2052,0,-0.1081,-0.1111,-0.1217,-0.1248,-0.129,-0.14,-0.1473,-0.1509,-0.1602,-0.1635,-0.1821,-0.1827,-0.1971,-0.2004,-0.203,-0.1964,-0.2033,-0.1901,-0.1862,-0.2041,-0.2041,-0.2031,-0.2031,-0.2048,-0.2049,-0.2049,-0.205,0,-0.1006,-0.1071,-0.1126,-0.1236,-0.1266,-0.1316,-0.1434,-0.1469,-0.157,-0.1589,-0.1623,-0.1749,-0.1777,-0.1886,-0.1894,-0.1886,-0.1846,-0.1794,-0.195,-0.1923,-0.169,-0.1692,-0.1603,-0.1598,-0.1593,-0.1589,-0.1586,0,-0.0976,-0.0999,-0.1101,-0.1116,-0.118,-0.1268,-0.1302,-0.1416,-0.1447,-0.15,-0.148,-0.1552,-0.1623,-0.1544,-0.1666,-0.1681,-0.168,-0.1647,-0.1712,-0.1676,-0.1647,-0.1656,-0.1664,-0.1578,-0.1577,-0.1576,-0.1575,0,-0.092,-0.0967,-0.1004,-0.1032,-0.1083,-0.1119,-0.1191,-0.1181,-0.1268,-0.1366,-0.1285,-0.1313,-0.1326,-0.1401,-0.1434,-0.145,-0.1676,-0.1598,-0.1609,-0.1669,-0.1644,-0.1623,-0.1636,-0.1558,-0.1561,-0.1562,-0.1563,0,-0.0879,-0.0879,-0.0921,-0.0941,-0.0968,-0.0943,-0.1009,-0.102,-0.1053,-0.1118,-0.1056,-0.1142,-0.1227,-0.1271,-0.129,-0.132,-0.1321,-0.1303,-0.133,-0.1349,-0.133,-0.1265,-0.1015,0,0,0,0,0,-0.083,-0.0803,-0.0813,-0.0807,-0.0821,-0.0833,-0.0901,-0.0974,-0.1052,-0.0937,-0.099,-0.0985,-0.1005,-0.1084,-0.1073,-0.1226,-0.1357,-0.1211,-0.1357,-0.1468,-0.1487,-0.15,0,0,0,0,0,0,-0.0785,-0.0784,-0.078,-0.069,-0.0647,-0.0648,-0.0682,-0.0733,-0.0716,-0.0792,-0.0837,-0.0895,-0.0985,-0.0971,-0.1031,-0.1058,-0.1126,-0.1281,-0.1278,-0.1457,-0.1475,-0.149,-0.1509,0,0,0,0,0]},{"header":{"parameterUnit":"m.s-1","parameterCategory":2,"la1":30.2991,"la2":30.254,"lo1":-89.0895,"lo2":-89.0444,"dy":0.0017,"dx":0.0017,"nx":28,"ny":28,"refTime":"2023-08-11T09:00:00:Z","depth":"4","parameterNumber":3,"parameterNumberName":"V-component_of_CURRENTS"},"data":[0,0,0,0,0,0,0,0,0,0,0,0,0,0,0,0,0,0,0,0,0,0,0,0,0,0,0,0,0,0,0,0,0,0,0,0,0,0,0,0,0,0,0,0,0,0,0,0,0,0,0,0,0,0,0,0,0,0,-0.0367,-0.0366,0,-0.036,-0.0361,-0.0361,-0.0363,-0.0363,-0.0363,-0.0363,-0.0282,-0.028,-0.0278,0,0,0,0,0,0,0,0,0,0,0,0,0,-0.0324,-0.0325,-0.0367,-0.0366,-0.0366,-0.036,-0.0361,-0.0361,-0.0363,-0.0363,-0.0363,-0.0363,-0.0282,-0.028,-0.0277,0,0,0,0,0,0,0,0,0,0,0,0,0,-0.0335,-0.0326,-0.0367,-0.0364,-0.0364,-0.036,-0.0361,-0.0361,-0.0363,-0.0363,-0.0363,-0.0363,-0.0283,-0.028,-0.0277,-0.0261,0,0,-0.0268,-0.0266,0,0,0,0,0,0,0,0,-0.0335,-0.0337,-0.0365,-0.0364,-0.0364,-0.036,-0.0316,-0.0323,-0.0363,-0.0366,-0.0363,-0.0362,-0.0299,-0.0295,-0.0299,-0.0258,-0.0254,-0.0267,-0.0265,-0.0264,-0.0263,0,0,0,0,0,0,0,-0.0334,-0.0337,-0.0367,-0.0365,-0.0364,-0.0344,-0.0346,-0.0317,-0.0334,-0.0366,-0.0365,-0.036,-0.0299,-0.0302,-0.0297,-0.0253,-0.0267,-0.0265,-0.0263,-0.0262,-0.023,-0.0231,0,0,0,0,0,0,-0.0333,-0.0337,-0.0367,-0.0367,-0.0345,-0.0345,-0.0348,-0.0364,-0.0336,-0.0332,-0.0361,-0.036,-0.0307,-0.03,-0.0294,-0.0316,-0.0264,-0.0261,-0.0259,-0.0229,-0.023,-0.0232,0,0,0,0,0,0,-0.0332,-0.0336,-0.0367,-0.0348,-0.035,-0.0346,-0.0364,-0.0364,-0.037,-0.0333,-0.0327,-0.0367,-0.0307,-0.0298,-0.0285,-0.0311,-0.026,-0.0257,-0.0228,-0.023,-0.0231,-0.0332,0,0,0,0,0,0,-0.0331,-0.0337,-0.0354,-0.0349,-0.0351,-0.0377,-0.0364,-0.0363,-0.0365,-0.0365,-0.0336,-0.0328,-0.0306,-0.029,-0.0282,-0.0306,-0.0255,-0.0227,-0.0229,-0.0231,-0.0328,-0.0337,-0.0345,0,0,0,0,0,-0.033,-0.0351,-0.0355,-0.0359,-0.0374,-0.0377,-0.0377,-0.0374,-0.0366,-0.0378,-0.0361,-0.033,-0.0296,-0.0288,-0.0278,-0.0302,-0.0226,-0.0228,-0.023,-0.0324,-0.0335,-0.0345,0,0,0,0,0,0,-0.034,-0.0353,-0.0357,-0.0382,-0.0384,-0.0376,-0.0383,-0.0377,-0.0375,-0.0374,-0.0338,-0.033,-0.0334,-0.0298,-0.029,-0.0299,-0.0257,-0.0257,-0.0331,-0.0342,-0.035,-0.0329,-0.0252,0,0,0,0,0,-0.035,-0.0374,-0.0375,-0.0396,-0.0397,-0.0391,-0.0392,-0.0393,-0.0384,-0.0384,-0.037,-0.0348,-0.0336,-0.0322,-0.0309,-0.0302,-0.0222,-0.0312,-0.0321,-0.0328,-0.0305,-0.0217,-0.0215,-0.0239,-0.0239,-0.0239,0,0,-0.0361,-0.0368,-0.0384,-0.04,-0.0399,-0.0422,-0.0393,-0.0401,-0.0425,-0.0372,-0.0402,-0.038,-0.0342,-0.0353,-0.0349,-0.0324,-0.0281,-0.0331,-0.0338,-0.031,-0.0219,-0.0217,-0.0214,-0.0241,-0.024,-0.024,0,0,-0.0385,-0.0399,-0.0425,-0.043,-0.0435,-0.0443,-0.0447,-0.0452,-0.0459,-0.0479,-0.0451,-0.0435,-0.0428,-0.0402,-0.0386,-0.0424,-0.0336,-0.0433,-0.0453,-0.037,-0.0366,-0.0362,-0.0259,-0.0245,-0.0431,-0.0431,-0.0431,0,-0.0394,-0.0431,-0.043,-0.0449,-0.0461,-0.0456,-0.0485,-0.0496,-0.0502,-0.0508,-0.0503,-0.0475,-0.0449,-0.0428,-0.0451,-0.0442,-0.0371,-0.0421,-0.0379,-0.0373,-0.0367,-0.0263,-0.0246,-0.0436,-0.0436,-0.0435,-0.0435,0,-0.0432,-0.0464,-0.0474,-0.0512,-0.0528,-0.0548,-0.0562,-0.0588,-0.06,-0.0606,-0.06,-0.0555,-0.0528,-0.053,-0.0503,-0.0459,-0.0415,-0.0407,-0.0351,-0.0371,-0.026,-0.024,-0.0444,-0.0442,-0.044,-0.0439,0,0,-0.0447,-0.0495,-0.05,-0.0528,-0.0562,-0.0579,-0.0627,-0.0662,-0.0691,-0.0684,-0.0689,-0.0661,-0.0619,-0.0593,-0.0546,-0.0472,-0.038,-0.0425,-0.0418,-0.0318,-0.0173,-0.0176,-0.0154,-0.0367,-0.0364,-0.0362,-0.0113,0,-0.0477,-0.0531,-0.0551,-0.0615,-0.0647,-0.0665,-0.0712,-0.0742,-0.0764,-0.0775,-0.0705,-0.0703,-0.0648,-0.0634,-0.0547,-0.0432,-0.0332,-0.0446,-0.017,-0.016,-0.0158,-0.0134,-0.0353,-0.0097,-0.0093,-0.0089,-0.0087,0,-0.0506,-0.0543,-0.0609,-0.0674,-0.0688,-0.0736,-0.0805,-0.084,-0.0854,-0.0858,-0.0816,-0.0777,-0.067,-0.0625,-0.0382,-0.0458,-0.0311,-0.0206,-0.0194,-0.0141,-0.0128,-0.0071,-0.005,-0.0053,-0.0056,-0.0058,-0.006,0,-0.0514,-0.0582,-0.0642,-0.0661,-0.0737,-0.0778,-0.0823,-0.0872,-0.0902,-0.0901,-0.0915,-0.079,-0.0719,-0.0529,-0.0321,-0.0349,-0.0035,-0.0049,0.0106,0.0108,0.0083,0.0076,0.0155,0.0154,0.0154,0.0153,0.0152,0,-0.0534,-0.0583,-0.0655,-0.0685,-0.0765,-0.0804,-0.0882,-0.0916,-0.0945,-0.096,-0.0941,-0.0899,-0.0692,-0.0512,-0.0311,-0.0032,-0.0013,0.0132,0.0176,0.0032,0.0017,0.0098,0.0088,0.0162,0.016,0.0159,0.0157,0,-0.0543,-0.0584,-0.0658,-0.0743,-0.0771,-0.0832,-0.0916,-0.0966,-0.1003,-0.1011,-0.1011,-0.0943,-0.0713,-0.0483,-0.0157,-0.0024,0.0233,0.0336,0.0194,0.0221,0.0324,0.0305,0.0526,0.0528,0.053,0.0531,0.0533,0,-0.0558,-0.0594,-0.0691,-0.0738,-0.0785,-0.0868,-0.0925,-0.0981,-0.1008,-0.102,-0.0999,-0.0851,-0.0755,-0.0295,-0.0071,0.0321,0.0364,0.0477,0.038,0.0343,0.0365,0.0343,0.0323,0.0535,0.0536,0.0536,0.0537,0,-0.0584,-0.0619,-0.0674,-0.0759,-0.083,-0.0907,-0.097,-0.098,-0.1015,-0.1053,-0.0958,-0.0805,-0.0543,-0.0255,0.0047,0.0317,0.0374,0.0495,0.0492,0.0403,0.0357,0.0371,0.035,0.0543,0.0542,0.0541,0.0541,0,-0.0601,-0.0642,-0.0699,-0.0774,-0.0862,-0.0916,-0.0951,-0.095,-0.0969,-0.0955,-0.0901,-0.0707,-0.0587,-0.025,0.0031,0.0284,0.0327,0.0359,0.0364,0.036,0.0206,0.0117,0.0294,0,0,0,0,0,-0.061,-0.0639,-0.0707,-0.0782,-0.0867,-0.091,-0.0968,-0.0988,-0.0993,-0.0911,-0.0903,-0.0664,-0.0332,-0.0219,0.005,0.0067,0.0372,0.0379,0.0413,0.0575,0.0569,0.0412,0,0,0,0,0,0,-0.0613,-0.0667,-0.0693,-0.0768,-0.0816,-0.09,-0.0936,-0.0941,-0.0878,-0.0864,-0.0667,-0.063,-0.0274,-0.0452,0.0051,0.0114,0.0159,0.0528,0.0532,0.0579,0.0573,0.0568,0.0404,0,0,0,0,0]}]]